• In Austria
  • List of Countries
  • For 7 days
  • Water Temperature
  • Satellite Maps
  • Weather Map
  • News
  • Weather Widgets
  • user-avatar
    Login

    Hourly Weather Aleksandria

    Today, 21 September, Friday

    Time Temperature Precipitation Wind Pressure Humidity
    00:00 +26°C° 0 mm 3 mps 759 mmHg 74%
    01:00 +26°C° 0 mm 3 mps 759 mmHg 75%
    02:00 +25°C° 0 mm 3 mps 759 mmHg 75%
    03:00 +25°C° 0 mm 3 mps 759 mmHg 75%
    04:00 +25°C° 0 mm 3 mps 759 mmHg 75%
    05:00 +25°C° 0 mm 3 mps 759 mmHg 75%
    06:00 +26°C° 0 mm 3 mps 759 mmHg 70%
    07:00 +27°C° 0 mm 3 mps 760 mmHg 64%
    08:00 +28°C° 0 mm 3 mps 760 mmHg 58%
    09:00 +29°C° 0 mm 4 mps 760 mmHg 54%
    10:00 +30°C° 0 mm 4 mps 760 mmHg 50%
    11:00 +32°C° 0 mm 4 mps 760 mmHg 45%
    12:00 +32°C° 0 mm 5 mps 760 mmHg 45%
    13:00 +33°C° 0 mm 5 mps 759 mmHg 45%
    14:00 +33°C° 0 mm 6 mps 759 mmHg 45%
    15:00 +32°C° 0 mm 6 mps 759 mmHg 49%
    16:00 +30°C° 0 mm 6 mps 759 mmHg 54%
    17:00 +29°C° 0 mm 6 mps 759 mmHg 58%
    18:00 +28°C° 0 mm 5 mps 759 mmHg 63%
    19:00 +27°C° 0 mm 5 mps 759 mmHg 68%
    20:00 +26°C° 0 mm 4 mps 760 mmHg 73%
    21:00 +26°C° 0 mm 4 mps 760 mmHg 74%
    22:00 +26°C° 0 mm 4 mps 760 mmHg 74%
    23:00 +26°C° 0 mm 3 mps 760 mmHg 75%

    Tomorrow, 22 September, Saturday

    Time Temperature Precipitation Wind Pressure Humidity
    00:00 +25°C° 0 mm 3 mps 760 mmHg 75%
    01:00 +25°C° 0 mm 3 mps 760 mmHg 75%
    02:00 +25°C° 0 mm 3 mps 760 mmHg 75%
    03:00 +25°C° 0 mm 3 mps 760 mmHg 75%
    04:00 +25°C° 0 mm 3 mps 760 mmHg 75%
    05:00 +25°C° 0 mm 3 mps 760 mmHg 75%
    06:00 +26°C° 0 mm 3 mps 760 mmHg 70%
    07:00 +27°C° 0 mm 3 mps 760 mmHg 64%
    08:00 +28°C° 0 mm 3 mps 761 mmHg 59%
    09:00 +29°C° 0 mm 4 mps 761 mmHg 54%
    10:00 +30°C° 0 mm 4 mps 761 mmHg 50%
    11:00 +33°C° 0 mm 4 mps 761 mmHg 45%
    12:00 +33°C° 0 mm 5 mps 760 mmHg 46%
    13:00 +33°C° 0 mm 5 mps 760 mmHg 46%
    14:00 +33°C° 0 mm 6 mps 760 mmHg 46%
    15:00 +32°C° 0 mm 6 mps 760 mmHg 50%
    16:00 +30°C° 0 mm 6 mps 759 mmHg 54%
    17:00 +29°C° 0 mm 6 mps 759 mmHg 58%
    18:00 +28°C° 0 mm 5 mps 760 mmHg 63%
    19:00 +28°C° 0 mm 5 mps 760 mmHg 68%
    20:00 +27°C° 0 mm 5 mps 761 mmHg 73%
    21:00 +26°C° 0 mm 4 mps 761 mmHg 74%
    22:00 +26°C° 0 mm 4 mps 761 mmHg 75%
    23:00 +26°C° 0 mm 3 mps 761 mmHg 75%

    Day after tomorrow, 23 September, Sunday

    Time Temperature Precipitation Wind Pressure Humidity
    00:00 +26°C° 0 mm 3 mps 761 mmHg 75%
    01:00 +26°C° 0 mm 3 mps 761 mmHg 75%
    02:00 +25°C° 0 mm 3 mps 761 mmHg 75%
    03:00 +25°C° 0 mm 3 mps 761 mmHg 75%
    04:00 +25°C° 0 mm 3 mps 761 mmHg 75%
    05:00 +25°C° 0 mm 3 mps 761 mmHg 76%
    06:00 +26°C° 0 mm 3 mps 761 mmHg 70%
    07:00 +27°C° 0 mm 4 mps 761 mmHg 65%
    08:00 +28°C° 0 mm 4 mps 762 mmHg 60%
    09:00 +29°C° 0 mm 4 mps 762 mmHg 55%
    10:00 +32°C° 0 mm 4 mps 762 mmHg 50%
    11:00 +33°C° 0 mm 4 mps 762 mmHg 46%
    12:00 +33°C° 0 mm 5 mps 761 mmHg 45%
    13:00 +33°C° 0 mm 5 mps 761 mmHg 45%
    14:00 +33°C° 0 mm 6 mps 761 mmHg 45%
    15:00 +32°C° 0 mm 6 mps 760 mmHg 50%
    16:00 +30°C° 0 mm 6 mps 760 mmHg 55%
    17:00 +29°C° 0 mm 6 mps 760 mmHg 59%
    18:00 +28°C° 0 mm 6 mps 761 mmHg 64%
    19:00 +28°C° 0 mm 5 mps 761 mmHg 69%
    20:00 +27°C° 0 mm 5 mps 762 mmHg 75%
    21:00 +26°C° 0 mm 4 mps 762 mmHg 76%
    22:00 +26°C° 0 mm 4 mps 762 mmHg 78%
    23:00 +26°C° 0 mm 4 mps 762 mmHg 80%

    24 September, Monday

    Time Temperature Precipitation Wind Pressure Humidity
    00:00 +26°C° 0 mm 4 mps 761 mmHg 80%
    01:00 +25°C° 0 mm 3 mps 761 mmHg 80%
    02:00 +25°C° 0 mm 3 mps 761 mmHg 80%
    03:00 +25°C° 0 mm 3 mps 761 mmHg 80%
    04:00 +25°C° 0 mm 3 mps 761 mmHg 80%
    05:00 +25°C° 0 mm 3 mps 760 mmHg 80%
    06:00 +26°C° 0 mm 3 mps 760 mmHg 75%
    07:00 +27°C° 0 mm 3 mps 761 mmHg 70%
    08:00 +28°C° 0 mm 3 mps 761 mmHg 65%
    09:00 +30°C° 0 mm 3 mps 760 mmHg 59%
    10:00 +32°C° 0 mm 4 mps 760 mmHg 52%
    11:00 +33°C° 0 mm 4 mps 760 mmHg 46%
    12:00 +33°C° 0 mm 4 mps 760 mmHg 46%
    13:00 +34°C° 0 mm 5 mps 759 mmHg 46%
    14:00 +34°C° 0 mm 5 mps 758 mmHg 45%
    15:00 +33°C° 0 mm 5 mps 758 mmHg 50%
    16:00 +32°C° 0 mm 5 mps 758 mmHg 55%
    17:00 +30°C° 0 mm 5 mps 758 mmHg 59%
    18:00 +29°C° 0 mm 5 mps 759 mmHg 65%
    19:00 +28°C° 0 mm 4 mps 759 mmHg 72%
    20:00 +27°C° 0 mm 4 mps 759 mmHg 78%
    21:00 +27°C° 0 mm 4 mps 759 mmHg 79%
    22:00 +26°C° 0 mm 3 mps 759 mmHg 81%
    23:00 +26°C° 0 mm 3 mps 759 mmHg 83%

    25 September, Tuesday

    Time Temperature Precipitation Wind Pressure Humidity
    00:00 +26°C° 0 mm 3 mps 759 mmHg 83%
    01:00 +26°C° 0 mm 2 mps 758 mmHg 83%
    02:00 +25°C° 0 mm 2 mps 758 mmHg 83%
    03:00 +25°C° 0 mm 2 mps 758 mmHg 83%
    04:00 +25°C° 0 mm 2 mps 758 mmHg 83%
    05:00 +25°C° 0 mm 2 mps 758 mmHg 83%
    06:00 +26°C° 0 mm 2 mps 758 mmHg 78%
    07:00 +27°C° 0 mm 3 mps 758 mmHg 72%
    08:00 +28°C° 0 mm 3 mps 759 mmHg 67%
    09:00 +30°C° 0 mm 3 mps 759 mmHg 60%
    10:00 +31°C° 0 mm 3 mps 758 mmHg 52%
    11:00 +33°C° 0 mm 3 mps 758 mmHg 45%
    12:00 +34°C° 0 mm 4 mps 758 mmHg 45%
    13:00 +34°C° 0 mm 5 mps 757 mmHg 45%
    14:00 +34°C° 0 mm 5 mps 757 mmHg 45%
    15:00 +33°C° 0 mm 5 mps 757 mmHg 49%
    16:00 +32°C° 0 mm 5 mps 757 mmHg 53%
    17:00 +30°C° 0 mm 5 mps 757 mmHg 58%
    18:00 +29°C° 0 mm 5 mps 757 mmHg 64%
    19:00 +28°C° 0 mm 4 mps 758 mmHg 69%
    20:00 +27°C° 0 mm 4 mps 758 mmHg 75%
    21:00 +27°C° 0 mm 3 mps 758 mmHg 76%
    22:00 +26°C° 0 mm 3 mps 758 mmHg 76%
    23:00 +26°C° 0 mm 2 mps 758 mmHg 77%

    26 September, Wednesday

    Time Temperature Precipitation Wind Pressure Humidity
    00:00 +26°C° 0 mm 2 mps 758 mmHg 77%
    01:00 +26°C° 0 mm 2 mps 757 mmHg 77%
    02:00 +25°C° 0 mm 2 mps 757 mmHg 76%
    03:00 +25°C° 0 mm 3 mps 757 mmHg 76%
    04:00 +25°C° 0 mm 3 mps 757 mmHg 75%
    05:00 +25°C° 0 mm 3 mps 757 mmHg 75%
    06:00 +26°C° 0 mm 3 mps 758 mmHg 70%
    07:00 +27°C° 0 mm 3 mps 758 mmHg 65%
    08:00 +29°C° 0 mm 4 mps 758 mmHg 60%
    09:00 +30°C° 0 mm 4 mps 758 mmHg 56%
    10:00 +32°C° 0 mm 5 mps 758 mmHg 52%
    11:00 +33°C° 0 mm 5 mps 758 mmHg 48%
    12:00 +33°C° 0 mm 5 mps 757 mmHg 48%
    13:00 +33°C° 0 mm 6 mps 757 mmHg 49%
    14:00 +33°C° 0 mm 6 mps 756 mmHg 50%
    15:00 +32°C° 0 mm 6 mps 756 mmHg 55%
    16:00 +30°C° 0 mm 6 mps 757 mmHg 60%
    17:00 +29°C° 0 mm 6 mps 757 mmHg 65%
    18:00 +28°C° 0 mm 6 mps 757 mmHg 68%
    19:00 +27°C° 0 mm 6 mps 757 mmHg 72%
    20:00 +27°C° 0 mm 6 mps 758 mmHg 76%
    21:00 +26°C° 0 mm 6 mps 758 mmHg 76%
    22:00 +26°C° 0 mm 6 mps 758 mmHg 77%
    23:00 +26°C° 0 mm 6 mps 758 mmHg 77%
    Show more